[[{"header":{"parameterUnit":"m.s-1","parameterCategory":1,"la1":30.2991,"la2":30.254,"lo1":-89.0895,"lo2":-89.0444,"dy":0.0017,"dx":0.0017,"nx":28,"ny":28,"refTime":"2024-06-30T21:00:00:Z","depth":0,"parameterNumber":2,"parameterNumberName":"U-component_of_WINDS"},"data":[0,0,0,0,0,0,0,0,0,0,0,0,0,0,0,0,0,0,0,0,0,0,0,0,0,0,0,0,0,0,0,0,0,0,0,0,0,0,0,0,0,0,0,0,0,0,0,0,0,0,0,0,0,0,0,0,0,0,4.6483,4.6486,0,4.6694,4.6697,4.6699,4.6666,4.6663,4.6659,4.6656,4.6876,4.6885,4.6894,0,0,0,0,0,0,0,0,0,0,0,0,0,4.6055,4.6063,4.6483,4.6486,4.6488,4.6694,4.6697,4.67,4.6667,4.6663,4.6658,4.6654,4.6873,4.6883,4.6895,0,0,0,0,0,0,0,0,0,0,0,0,0,4.6251,4.6066,4.6483,4.6497,4.65,4.6693,4.6697,4.67,4.6668,4.6662,4.6657,4.6652,4.6869,4.6882,4.6896,4.7089,0,0,4.6938,4.6944,0,0,0,0,0,0,0,0,4.624,4.6267,4.6492,4.6496,4.65,4.6648,4.6626,4.6831,4.6669,4.6604,4.6656,4.6649,4.6805,4.6823,4.6875,4.71,4.7109,4.6939,4.6948,4.6954,4.6958,0,0,0,0,0,0,0,4.6226,4.6258,4.6567,4.6495,4.6501,4.6494,4.6515,4.6665,4.6732,4.661,4.6608,4.6633,4.6806,4.6862,4.688,4.7112,4.6939,4.6951,4.696,4.6965,4.7506,4.7512,0,0,0,0,0,0,4.6208,4.6247,4.656,4.6573,4.6354,4.6506,4.653,4.6606,4.6731,4.6744,4.6637,4.6631,4.6841,4.6864,4.6887,4.7121,4.6954,4.6967,4.6975,4.75,4.7507,4.7514,0,0,0,0,0,0,4.6199,4.6237,4.6551,4.6409,4.6449,4.6519,4.6605,4.6613,4.6669,4.6752,4.6764,4.6682,4.6837,4.6868,4.7039,4.7129,4.6973,4.6985,4.7493,4.7502,4.751,4.7591,0,0,0,0,0,0,4.6187,4.6234,4.6307,4.6411,4.6457,4.6699,4.661,4.6621,4.6693,4.6686,4.6796,4.681,4.6836,4.7019,4.7053,4.7145,4.6996,4.7485,4.7497,4.7508,4.7581,4.7602,4.762,0,0,0,0,0,4.6172,4.6323,4.6311,4.6349,4.655,4.6704,4.673,4.6756,4.67,4.6775,4.6828,4.6806,4.7113,4.7036,4.7075,4.7172,4.7479,4.7493,4.7507,4.7572,4.7598,4.762,0,0,0,0,0,0,4.6229,4.6337,4.6325,4.6514,4.66,4.6698,4.6794,4.6782,4.6887,4.6877,4.6905,4.693,4.7103,4.7155,4.7067,4.7366,4.7289,4.7311,4.7325,4.7351,4.737,4.7354,4.7008,0,0,0,0,0,4.6263,4.6379,4.6467,4.6625,4.6668,4.6724,4.6792,4.6804,4.6895,4.6931,4.6997,4.7087,4.7203,4.728,4.7392,4.7588,4.7612,4.7674,4.7694,4.7709,4.7728,4.7835,4.7864,4.7559,4.7558,4.7558,0,0,4.6336,4.6409,4.648,4.6638,4.6706,4.6825,4.6755,4.6884,4.6973,4.6952,4.7116,4.7168,4.727,4.7454,4.7539,4.7503,4.7818,4.7727,4.7739,4.7749,4.7852,4.7881,4.7907,4.7568,4.7566,4.7565,0,0,4.6529,4.6596,4.6734,4.6803,4.6907,4.6942,4.6976,4.7076,4.7109,4.7274,4.726,4.7367,4.7568,4.7641,4.7704,4.7924,4.7908,4.796,4.8062,4.8166,4.819,4.8212,4.829,4.8317,4.7978,4.7978,4.7979,0,4.6606,4.6784,4.6807,4.6938,4.7008,4.6992,4.7132,4.7199,4.7335,4.7384,4.7341,4.7591,4.7659,4.786,4.7913,4.7966,4.8005,4.7947,4.8185,4.8206,4.8227,4.8301,4.8331,4.7984,4.7983,4.7983,4.7982,0,4.6874,4.6998,4.7098,4.7227,4.7308,4.7443,4.7487,4.7566,4.7571,4.7611,4.778,4.7861,4.7989,4.8037,4.8044,4.8239,4.8213,4.8178,4.8101,4.8261,4.8332,4.836,4.7992,4.799,4.7988,4.7987,0,0,4.711,4.7248,4.7285,4.7343,4.7455,4.7552,4.7687,4.781,4.7877,4.7971,4.8085,4.8254,4.8221,4.8294,4.8309,4.84,4.8568,4.8353,4.8356,4.839,4.8787,4.8813,4.8846,4.8558,4.8563,4.8568,4.8779,0,4.7313,4.7549,4.7573,4.7784,4.7899,4.7885,4.8002,4.8085,4.8126,4.823,4.8276,4.8395,4.8343,4.8386,4.8476,4.8528,4.8648,4.8514,4.8665,4.867,4.8639,4.8883,4.8911,4.9106,4.8806,4.8811,4.8815,0,4.7582,4.7681,4.7904,4.7999,4.8048,4.8153,4.8268,4.8367,4.846,4.8483,4.8563,4.8566,4.8705,4.8623,4.8815,4.8723,4.8786,4.8822,4.883,4.8845,4.8752,4.8904,4.9169,4.9198,4.8858,4.8855,4.8852,0,4.773,4.7921,4.8078,4.8128,4.8244,4.8318,4.837,4.8457,4.8529,4.863,4.8677,4.8793,4.8857,4.8947,4.8981,4.8918,4.9172,4.9092,4.9195,4.9195,4.925,4.9246,4.9528,4.9291,4.929,4.929,4.9289,0,4.7955,4.8091,4.8146,4.8243,4.8396,4.8422,4.8573,4.8621,4.8699,4.8805,4.8801,4.8902,4.894,4.9047,4.9075,4.923,4.9259,4.9282,4.9288,4.9283,4.928,4.9324,4.9312,4.9298,4.9296,4.9294,4.9293,0,4.8147,4.8189,4.8359,4.8454,4.8481,4.859,4.8671,4.8765,4.8804,4.8939,4.8972,4.9035,4.916,4.9203,4.9356,4.9374,4.9554,4.9548,4.9522,4.9523,4.9624,4.9613,4.9945,4.9989,4.9723,4.9725,4.9727,0,4.8287,4.8391,4.8497,4.8567,4.8621,4.8735,4.8808,4.8838,4.8915,4.9028,4.9108,4.9232,4.9333,4.9534,4.9594,4.971,4.9707,4.9815,4.9725,4.9716,4.9709,4.9702,4.9712,4.9832,4.9835,4.9837,4.9839,0,4.8531,4.8546,4.8651,4.8764,4.8851,4.8941,4.9029,4.9087,4.913,4.9216,4.9343,4.9422,4.9576,4.97,4.9819,4.9873,4.9864,4.9867,4.9897,4.9892,4.9873,4.9884,4.9568,4.9859,4.9857,4.9856,4.9855,4.9854,4.8702,4.8793,4.8881,4.8998,4.9067,4.9148,4.9241,4.9291,4.9397,4.9524,4.9536,4.9673,4.9763,4.9921,4.9981,5.009,5.006,5.0103,5.0114,5.0125,5.0132,4.9855,5.0112,5.0111,5.0111,5.011,5.011,0,4.8945,4.9001,4.9108,4.9229,4.9321,4.9303,4.9398,4.9477,4.9597,4.9681,4.978,4.9926,5.0045,5.0114,5.0233,5.0307,5.0306,5.0337,5.0332,5.0345,5.0152,5.0114,5.0336,5.0336,5.0336,5.0336,5.0336,5.0336,4.9083,4.9237,4.9262,4.945,4.9505,4.9638,4.9695,4.977,4.9837,4.9999,5.0098,5.0141,5.0219,5.0344,5.0453,5.047,5.0514,5.0549,5.0563,5.0382,5.0359,5.0336,5.03,5.0558,5.0559,5.0746,5.0748,5.0749]},{"header":{"parameterUnit":"m.s-1","parameterCategory":1,"la1":30.2991,"la2":30.254,"lo1":-89.0895,"lo2":-89.0444,"dy":0.0017,"dx":0.0017,"nx":28,"ny":28,"refTime":"2024-06-30T21:00:00:Z","depth":0,"parameterNumber":3,"parameterNumberName":"V-component_of_WINDS"},"data":[0,0,0,0,0,0,0,0,0,0,0,0,0,0,0,0,0,0,0,0,0,0,0,0,0,0,0,0,0,0,0,0,0,0,0,0,0,0,0,0,0,0,0,0,0,0,0,0,0,0,0,0,0,0,0,0,0,0,1.8072,1.8073,0,1.8175,1.8176,1.8177,1.8155,1.8153,1.8151,1.8149,1.8255,1.826,1.8264,0,0,0,0,0,0,0,0,0,0,0,0,0,1.7855,1.7859,1.8071,1.8073,1.8074,1.8175,1.8176,1.8178,1.8155,1.8153,1.815,1.8148,1.8254,1.8259,1.8265,0,0,0,0,0,0,0,0,0,0,0,0,0,1.7953,1.786,1.8071,1.8075,1.8076,1.8175,1.8176,1.8178,1.8156,1.8153,1.815,1.8147,1.8252,1.8259,1.8266,1.8367,0,0,1.8287,1.829,0,0,0,0,0,0,0,0,1.7947,1.7961,1.8073,1.8075,1.8077,1.8149,1.8139,1.8241,1.8156,1.8126,1.8149,1.8146,1.8222,1.8231,1.8257,1.8372,1.8376,1.8287,1.8292,1.8295,1.8297,0,0,0,0,0,0,0,1.794,1.7956,1.8112,1.8075,1.8077,1.8072,1.8082,1.8158,1.8189,1.8128,1.8127,1.8139,1.8223,1.8251,1.826,1.8378,1.8287,1.8293,1.8298,1.83,1.858,1.8583,0,0,0,0,0,0,1.7932,1.7951,1.8109,1.8116,1.8003,1.8078,1.809,1.8129,1.8188,1.8194,1.8141,1.8138,1.824,1.8252,1.8263,1.8386,1.8295,1.8301,1.8305,1.8577,1.8581,1.8584,0,0,0,0,0,0,1.7927,1.7946,1.8105,1.8033,1.8053,1.8085,1.8129,1.8132,1.816,1.8198,1.8204,1.8164,1.8238,1.8253,1.8341,1.8389,1.8304,1.8311,1.8573,1.8578,1.8583,1.8631,0,0,0,0,0,0,1.7921,1.7945,1.7984,1.8034,1.8056,1.8181,1.8131,1.8136,1.8172,1.8168,1.8221,1.8227,1.8237,1.8331,1.8348,1.8397,1.8316,1.8569,1.8575,1.8581,1.8625,1.8637,1.8647,0,0,0,0,0,1.7914,1.7993,1.7986,1.8005,1.8105,1.8184,1.8197,1.8207,1.8176,1.8215,1.824,1.8225,1.8381,1.834,1.8359,1.8411,1.8566,1.8573,1.8581,1.862,1.8635,1.8647,0,0,0,0,0,0,1.7948,1.8,1.7992,1.809,1.8133,1.818,1.823,1.8222,1.8274,1.8268,1.8278,1.829,1.838,1.8404,1.8357,1.8512,1.8469,1.848,1.8493,1.8507,1.8517,1.851,1.8322,0,0,0,0,0,1.7967,1.8026,1.8068,1.8151,1.8173,1.8198,1.8232,1.8236,1.8281,1.8299,1.8329,1.8373,1.8432,1.8471,1.8527,1.8628,1.864,1.8673,1.8684,1.8693,1.8703,1.8759,1.8774,1.8608,1.8608,1.8608,0,0,1.8007,1.8042,1.8079,1.8159,1.8192,1.8253,1.8213,1.828,1.8325,1.8309,1.8393,1.8418,1.8467,1.8562,1.8606,1.8585,1.8751,1.8702,1.8709,1.8714,1.8768,1.8783,1.8797,1.8613,1.8612,1.8612,0,0,1.8111,1.8144,1.8216,1.825,1.8301,1.8318,1.8335,1.8384,1.8399,1.8484,1.8473,1.8527,1.8628,1.8664,1.8695,1.8813,1.8802,1.8831,1.8887,1.8942,1.8955,1.8966,1.9008,1.9023,1.884,1.8841,1.8841,0,1.8154,1.8246,1.8254,1.8322,1.8357,1.8345,1.8418,1.8451,1.8518,1.8543,1.8519,1.8645,1.8678,1.8781,1.881,1.8836,1.8856,1.8825,1.8952,1.8964,1.8975,1.9015,1.9031,1.8844,1.8843,1.8843,1.8843,0,1.8296,1.836,1.8412,1.8477,1.8518,1.8589,1.8608,1.8648,1.8649,1.8667,1.8754,1.8793,1.8856,1.8881,1.8882,1.8985,1.8971,1.8949,1.8907,1.8994,1.9032,1.9047,1.8848,1.8847,1.8846,1.8845,0,0,1.8425,1.8493,1.8513,1.8542,1.8597,1.8647,1.8717,1.8779,1.8814,1.886,1.8919,1.9004,1.8985,1.9021,1.9026,1.9073,1.9164,1.9046,1.9047,1.9067,1.9279,1.9295,1.9313,1.9156,1.9159,1.9162,1.9275,0,1.8534,1.8657,1.8666,1.8777,1.8836,1.8825,1.8886,1.8927,1.8946,1.8999,1.902,1.9081,1.905,1.9072,1.9118,1.9143,1.9207,1.9135,1.9211,1.9214,1.92,1.9333,1.935,1.9455,1.929,1.9293,1.9295,0,1.8678,1.8729,1.8845,1.8892,1.8917,1.8972,1.903,1.908,1.9126,1.9137,1.9177,1.9175,1.9247,1.9201,1.93,1.9251,1.9283,1.9299,1.9304,1.9311,1.926,1.9345,1.9489,1.9505,1.9318,1.9316,1.9314,0,1.876,1.8858,1.894,1.8965,1.9022,1.9061,1.9087,1.9129,1.9166,1.9217,1.9241,1.9299,1.9331,1.9376,1.939,1.9355,1.9489,1.9444,1.9499,1.9499,1.9528,1.9526,1.968,1.9548,1.9548,1.9548,1.9547,0,1.8881,1.8953,1.8978,1.9029,1.9109,1.9119,1.9198,1.9221,1.926,1.9315,1.9309,1.9361,1.9376,1.9431,1.9442,1.9522,1.9537,1.9547,1.9549,1.9548,1.9547,1.9569,1.9563,1.9552,1.9551,1.955,1.955,0,1.8987,1.9006,1.9095,1.9142,1.9156,1.9213,1.9253,1.9301,1.9319,1.9389,1.9406,1.9435,1.9499,1.9517,1.9594,1.9601,1.9696,1.9691,1.968,1.9681,1.9735,1.973,1.9909,1.9933,1.9785,1.9787,1.9788,0,1.9063,1.9118,1.917,1.9207,1.9234,1.9293,1.933,1.9343,1.9382,1.9438,1.948,1.9543,1.9595,1.9697,1.9725,1.9784,1.978,1.9839,1.9789,1.9786,1.9782,1.9778,1.9784,1.9849,1.985,1.9852,1.9853,0,1.9196,1.9203,1.9257,1.9315,1.936,1.9406,1.945,1.948,1.9499,1.9543,1.9609,1.9648,1.9727,1.979,1.9849,1.9875,1.9868,1.9868,1.9884,1.9883,1.9875,1.9881,1.9706,1.9864,1.9863,1.9862,1.9861,1.9861,1.9289,1.9338,1.9382,1.9443,1.9477,1.9519,1.9567,1.9591,1.9646,1.9711,1.9715,1.9786,1.983,1.9909,1.9938,1.9994,1.9977,2.0,2.0006,2.0011,2.0016,1.9866,2.0005,2.0004,2.0004,2.0004,2.0004,0,1.9422,1.945,1.9506,1.9568,1.9616,1.9604,1.9652,1.9693,1.9756,1.9798,1.9848,1.9923,1.9984,2.0016,2.0077,2.0115,2.0113,2.0131,2.0128,2.0134,2.0028,2.0008,2.0131,2.0131,2.0131,2.0131,2.0131,2.0131,1.9497,1.9578,1.959,1.9689,1.9716,1.9786,1.9814,1.9853,1.9886,1.997,2.0021,2.0042,2.008,2.0143,2.0199,2.0206,2.0229,2.0249,2.0255,2.0155,2.0142,2.0129,2.0111,2.0254,2.0254,2.0357,2.0358,2.0358]}]]